Location: Berlin
(52.5200°N, 13.4050°E)
Time: 02:10:54
(UTC+01:00)

ISS - Visible Passes

Search period start: 06 December 2023 00:00
Search period end: 16 December 2023 00:00
Orbit: 415 x 417 km, 51.6° (Epoch: 05 December)

Date Brightness Start Highest point End Pass type
(mag) Time Alt. Az. Time Alt. Az. Time Alt. Az.
06 Dec -0.5 17:29:41 10° WSW 17:31:03 12° SW 17:32:26 10° SSW visible
07 Dec -0.7 16:40:26 10° W 16:42:45 17° SW 16:45:02 10° S visible
15 Dec -0.1 07:01:38 10° SSE 07:02:25 11° SE 07:03:13 10° SE visible
